Time,TemperatureF,DewpointF,PressureIn,WindDirection,WindDirectionDegrees,WindSpeedMPH,WindSpeedGustMPH,Humidity,HourlyPrecipIn,Conditions,Clouds,dailyrainin,SoftwareType,DateUTC
2013-06-04 00:02:00,48.0,15.0,-100.00,WSW,257,2.0,4.0,26,0.00,,,-99.99,,2013-06-04 06:02:00,
2013-06-04 00:12:00,50.0,15.0,-100.00,West,260,4.0,6.0,25,0.00,,,-99.99,,2013-06-04 06:12:00,
2013-06-04 00:22:00,49.0,15.0,-100.00,WSW,246,4.0,6.0,26,0.00,,,-99.99,,2013-06-04 06:22:00,
2013-06-04 00:32:00,48.0,15.0,-100.00,SW,223,6.0,7.0,27,0.00,,,-99.99,,2013-06-04 06:32:00,
2013-06-04 00:42:00,45.0,17.0,-100.00,SW,219,4.0,7.0,31,0.00,,,-99.99,,2013-06-04 06:42:00,
2013-06-04 00:52:00,48.0,16.0,-100.00,SW,234,5.0,7.0,27,0.00,,,-99.99,,2013-06-04 06:52:00,
2013-06-04 01:02:00,43.0,17.0,-100.00,South,175,4.0,6.0,34,0.00,,,-99.99,,2013-06-04 07:02:00,
2013-06-04 01:12:00,42.0,17.0,-100.00,South,184,4.0,6.0,36,0.00,,,-99.99,,2013-06-04 07:12:00,
2013-06-04 01:22:00,42.0,17.0,-100.00,South,189,4.0,6.0,35,0.00,,,-99.99,,2013-06-04 07:22:00,
2013-06-04 01:32:00,42.0,17.0,-100.00,South,189,7.0,9.0,36,0.00,,,-99.99,,2013-06-04 07:32:00,
2013-06-04 01:42:00,43.0,17.0,-100.00,South,182,9.0,13.0,35,0.00,,,-99.99,,2013-06-04 07:42:00,
2013-06-04 01:52:00,42.0,17.0,-100.00,South,188,6.0,9.0,36,0.00,,,-99.99,,2013-06-04 07:52:00,
2013-06-04 02:02:00,41.0,17.0,-100.00,South,191,8.0,10.0,38,0.00,,,-99.99,,2013-06-04 08:02:00,
2013-06-04 02:12:00,42.0,18.0,-100.00,SSW,206,7.0,9.0,38,0.00,,,-99.99,,2013-06-04 08:12:00,
2013-06-04 02:22:00,43.0,18.0,-100.00,SSW,202,7.0,9.0,37,0.00,,,-99.99,,2013-06-04 08:22:00,
2013-06-04 02:32:00,43.0,19.0,-100.00,SSW,210,7.0,10.0,38,0.00,,,-99.99,,2013-06-04 08:32:00,
2013-06-04 02:42:00,45.0,18.0,-100.00,SSW,208,9.0,11.0,34,0.00,,,-99.99,,2013-06-04 08:42:00,
2013-06-04 02:52:00,42.0,20.0,-100.00,SSW,199,7.0,10.0,41,0.00,,,-99.99,,2013-06-04 08:52:00,
2013-06-04 03:02:00,42.0,19.0,-100.00,SSW,193,8.0,10.0,39,0.00,,,-99.99,,2013-06-04 09:02:00,
2013-06-04 03:12:00,42.0,18.0,-100.00,SSW,202,7.0,9.0,37,0.00,,,-99.99,,2013-06-04 09:12:00,
2013-06-04 03:22:00,47.0,17.0,-100.00,SW,220,9.0,10.0,29,0.00,,,-99.99,,2013-06-04 09:22:00,
2013-06-04 03:33:00,47.0,16.0,-100.00,SW,224,9.0,10.0,28,0.00,,,-99.99,,2013-06-04 09:33:00,
2013-06-04 03:43:00,46.0,16.0,-100.00,SW,223,9.0,9.0,30,0.00,,,-99.99,,2013-06-04 09:43:00,
2013-06-04 03:53:00,43.0,17.0,-100.00,WSW,237,6.0,9.0,34,0.00,,,-99.99,,2013-06-04 09:53:00,
2013-06-04 04:02:00,42.0,17.0,-100.00,North,7,4.0,8.0,36,0.00,,,-99.99,,2013-06-04 10:02:00,
2013-06-04 04:12:00,40.0,18.0,-100.00,East,97,1.0,3.0,40,0.00,,,-99.99,,2013-06-04 10:12:00,
2013-06-04 04:22:00,39.0,18.0,-100.00,SSE,167,2.0,4.0,42,0.00,,,-99.99,,2013-06-04 10:22:00,
2013-06-04 04:33:00,40.0,17.0,-100.00,South,171,3.0,6.0,39,0.00,,,-99.99,,2013-06-04 10:33:00,
2013-06-04 04:42:00,41.0,17.0,-100.00,South,186,4.0,7.0,38,0.00,,,-99.99,,2013-06-04 10:42:00,
2013-06-04 04:52:00,44.0,16.0,-100.00,SSW,212,11.0,12.0,33,0.00,,,-99.99,,2013-06-04 10:52:00,
2013-06-04 05:02:00,43.0,17.0,-100.00,SSW,209,9.0,12.0,34,0.00,,,-99.99,,2013-06-04 11:02:00,
2013-06-04 05:12:00,44.0,16.0,-100.00,SW,223,7.0,9.0,33,0.00,,,-99.99,,2013-06-04 11:12:00,
2013-06-04 05:22:00,42.0,16.0,-100.00,NNW,343,3.0,5.0,35,0.00,,,-99.99,,2013-06-04 11:22:00,
2013-06-04 05:32:00,42.0,17.0,-100.00,East,82,1.0,2.0,36,0.00,,,-99.99,,2013-06-04 11:32:00,
2013-06-04 05:42:00,42.0,17.0,-100.00,ESE,106,0.0,1.0,35,0.00,,,-99.99,,2013-06-04 11:42:00,
2013-06-04 05:52:00,41.0,16.0,-100.00,South,185,1.0,3.0,36,0.00,,,-99.99,,2013-06-04 11:52:00,
2013-06-04 06:02:00,41.0,18.0,-100.00,South,191,1.0,3.0,40,0.00,,,-99.99,,2013-06-04 12:02:00,
2013-06-04 06:12:00,44.0,17.0,-100.00,SSW,212,7.0,11.0,34,0.00,,,-99.99,,2013-06-04 12:12:00,
2013-06-04 06:22:00,46.0,18.0,-100.00,SW,216,9.0,11.0,32,0.00,,,-99.99,,2013-06-04 12:22:00,
2013-06-04 06:32:00,45.0,19.0,-100.00,SSW,205,9.0,12.0,34,0.00,,,-99.99,,2013-06-04 12:32:00,
2013-06-04 06:42:00,47.0,18.0,-100.00,SSW,205,11.0,14.0,32,0.00,,,-99.99,,2013-06-04 12:42:00,
2013-06-04 06:52:00,48.0,19.0,-100.00,SSW,203,11.0,14.0,32,0.00,,,-99.99,,2013-06-04 12:52:00,
2013-06-04 07:02:00,48.0,19.0,-100.00,SSW,199,12.0,16.0,31,0.00,,,-99.99,,2013-06-04 13:02:00,
2013-06-04 07:12:00,49.0,20.0,-100.00,SSW,200,11.0,16.0,31,0.00,,,-99.99,,2013-06-04 13:12:00,
2013-06-04 07:22:00,50.0,20.0,-100.00,SSW,199,7.0,11.0,30,0.00,,,-99.99,,2013-06-04 13:22:00,
2013-06-04 07:32:00,51.0,22.0,-100.00,SSW,206,7.0,11.0,32,0.00,,,-99.99,,2013-06-04 13:32:00,
2013-06-04 07:52:00,52.0,20.0,-100.00,SSW,210,11.0,14.0,29,0.00,,,-99.99,,2013-06-04 13:52:00,
2013-06-04 08:02:00,52.0,21.0,-100.00,SSW,210,11.0,14.0,30,0.00,,,-99.99,,2013-06-04 14:02:00,
2013-06-04 08:12:00,52.0,20.0,-100.00,SW,229,10.0,14.0,28,0.00,,,-99.99,,2013-06-04 14:12:00,
2013-06-04 08:22:00,51.0,22.0,-100.00,WNW,292,6.0,11.0,31,0.00,,,-99.99,,2013-06-04 14:22:00,
2013-06-04 08:32:00,50.0,22.0,-100.00,North,3,6.0,11.0,33,0.00,,,-99.99,,2013-06-04 14:32:00,
2013-06-04 08:42:00,51.0,23.0,-100.00,North,350,4.0,6.0,33,0.00,,,-99.99,,2013-06-04 14:42:00,
2013-06-04 08:52:00,51.0,22.0,-100.00,NW,318,4.0,8.0,32,0.00,,,-99.99,,2013-06-04 14:52:00,
2013-06-04 09:02:00,52.0,23.0,-100.00,NW,309,4.0,7.0,32,0.00,,,-99.99,,2013-06-04 15:02:00,
2013-06-04 09:12:00,54.0,22.0,-100.00,West,275,4.0,12.0,29,0.00,,,-99.99,,2013-06-04 15:12:00,
2013-06-04 09:22:00,54.0,22.0,-100.00,WSW,243,12.0,19.0,28,0.00,,,-99.99,,2013-06-04 15:22:00,
2013-06-04 09:33:00,54.0,20.0,-100.00,SW,233,12.0,19.0,27,0.00,,,-99.99,,2013-06-04 15:33:00,
2013-06-04 09:42:00,54.0,20.0,-100.00,SW,227,11.0,17.0,27,0.00,,,-99.99,,2013-06-04 15:42:00,
2013-06-04 09:53:00,54.0,21.0,-100.00,SW,236,14.0,21.0,27,0.00,,,-99.99,,2013-06-04 15:53:00,
2013-06-04 10:03:00,55.0,22.0,-100.00,WSW,250,12.0,17.0,28,0.00,,,-99.99,,2013-06-04 16:03:00,
2013-06-04 10:12:00,55.0,19.0,-100.00,WSW,248,12.0,18.0,24,0.00,,,-99.99,,2013-06-04 16:12:00,
2013-06-04 10:22:00,55.0,19.0,-100.00,WSW,246,12.0,21.0,24,0.00,,,-99.99,,2013-06-04 16:22:00,
2013-06-04 10:33:00,55.0,21.0,-100.00,WSW,256,12.0,21.0,26,0.00,,,-99.99,,2013-06-04 16:33:00,
2013-06-04 10:42:00,56.0,22.0,-100.00,WSW,253,13.0,19.0,26,0.00,,,-99.99,,2013-06-04 16:42:00,
2013-06-04 10:52:00,56.0,20.0,-100.00,WSW,243,14.0,24.0,24,0.00,,,-99.99,,2013-06-04 16:52:00,
2013-06-04 11:02:00,57.0,19.0,-100.00,WSW,246,13.0,20.0,22,0.00,,,-99.99,,2013-06-04 17:02:00,
2013-06-04 11:12:00,57.0,17.0,-100.00,SW,233,14.0,19.0,21,0.00,,,-99.99,,2013-06-04 17:12:00,
2013-06-04 11:23:00,57.0,21.0,-100.00,WSW,243,15.0,24.0,24,0.00,,,-99.99,,2013-06-04 17:23:00,
2013-06-04 11:32:00,58.0,18.0,-100.00,WSW,243,16.0,22.0,21,0.00,,,-99.99,,2013-06-04 17:32:00,
2013-06-04 11:42:00,58.0,18.0,-100.00,WSW,237,15.0,22.0,22,0.00,,,-99.99,,2013-06-04 17:42:00,
2013-06-04 11:52:00,58.0,21.0,-100.00,WSW,241,16.0,26.0,23,0.00,,,-99.99,,2013-06-04 17:52:00,
2013-06-04 12:02:00,59.0,19.0,-100.00,WSW,246,16.0,24.0,21,0.00,,,-99.99,,2013-06-04 18:02:00,
2013-06-04 12:12:00,59.0,19.0,-100.00,West,260,17.0,27.0,21,0.00,,,-99.99,,2013-06-04 18:12:00,
2013-06-04 12:22:00,59.0,20.0,-100.00,SW,236,17.0,26.0,21,0.00,,,-99.99,,2013-06-04 18:22:00,
2013-06-04 12:32:00,60.0,19.0,-100.00,WSW,248,16.0,30.0,20,0.00,,,-99.99,,2013-06-04 18:32:00,
2013-06-04 12:42:00,61.0,23.0,-100.00,West,265,19.0,29.0,23,0.00,,,-99.99,,2013-06-04 18:42:00,
2013-06-04 12:52:00,60.0,21.0,-100.00,WSW,246,15.0,22.0,22,0.00,,,-99.99,,2013-06-04 18:52:00,
2013-06-04 13:02:00,61.0,20.0,-100.00,West,265,18.0,27.0,21,0.00,,,-99.99,,2013-06-04 19:02:00,
2013-06-04 13:12:00,61.0,22.0,-100.00,West,274,17.0,27.0,22,0.00,,,-99.99,,2013-06-04 19:12:00,
2013-06-04 13:22:00,60.0,20.0,-100.00,WSW,250,19.0,30.0,21,0.00,,,-99.99,,2013-06-04 19:22:00,
2013-06-04 13:32:00,62.0,19.0,-100.00,WSW,246,20.0,28.0,19,0.00,,,-99.99,,2013-06-04 19:32:00,
2013-06-04 13:42:00,61.0,20.0,-100.00,WSW,237,21.0,29.0,20,0.00,,,-99.99,,2013-06-04 19:42:00,
2013-06-04 13:52:00,62.0,22.0,-100.00,West,267,21.0,30.0,21,0.00,,,-99.99,,2013-06-04 19:52:00,
2013-06-04 14:02:00,62.0,22.0,-100.00,WSW,254,24.0,32.0,21,0.00,,,-99.99,,2013-06-04 20:02:00,
2013-06-04 14:12:00,63.0,22.0,-100.00,WSW,254,21.0,29.0,21,0.00,,,-99.99,,2013-06-04 20:12:00,
2013-06-04 14:22:00,62.0,22.0,-100.00,WSW,244,17.0,28.0,22,0.00,,,-99.99,,2013-06-04 20:22:00,
2013-06-04 14:32:00,62.0,22.0,-100.00,WSW,257,19.0,29.0,21,0.00,,,-99.99,,2013-06-04 20:32:00,
2013-06-04 14:42:00,62.0,22.0,-100.00,WSW,241,19.0,32.0,21,0.00,,,-99.99,,2013-06-04 20:42:00,
2013-06-04 14:52:00,62.0,22.0,-100.00,WSW,240,22.0,34.0,21,0.00,,,-99.99,,2013-06-04 20:52:00,
2013-06-04 15:02:00,62.0,22.0,-100.00,West,260,17.0,32.0,22,0.00,,,-99.99,,2013-06-04 21:02:00,
2013-06-04 15:12:00,63.0,22.0,-100.00,SW,236,21.0,32.0,20,0.00,,,-99.99,,2013-06-04 21:12:00,
2013-06-04 15:22:00,63.0,22.0,-100.00,WSW,240,17.0,24.0,21,0.00,,,-99.99,,2013-06-04 21:22:00,
2013-06-04 15:33:00,63.0,23.0,-100.00,WSW,239,17.0,26.0,21,0.00,,,-99.99,,2013-06-04 21:33:00,
2013-06-04 15:42:00,64.0,22.0,-100.00,WSW,244,16.0,28.0,20,0.00,,,-99.99,,2013-06-04 21:42:00,
2013-06-04 15:52:00,63.0,21.0,-100.00,SW,236,21.0,29.0,20,0.00,,,-99.99,,2013-06-04 21:52:00,
2013-06-04 16:02:00,63.0,22.0,-100.00,WSW,240,17.0,24.0,20,0.00,,,-99.99,,2013-06-04 22:02:00,
2013-06-04 16:12:00,63.0,23.0,-100.00,WSW,253,14.0,22.0,21,0.00,,,-99.99,,2013-06-04 22:12:00,
2013-06-04 16:22:00,64.0,21.0,-100.00,West,267,16.0,26.0,19,0.00,,,-99.99,,2013-06-04 22:22:00,
2013-06-04 16:32:00,63.0,23.0,-100.00,WSW,250,15.0,21.0,21,0.00,,,-99.99,,2013-06-04 22:32:00,
2013-06-04 16:42:00,63.0,22.0,-100.00,West,272,15.0,21.0,20,0.00,,,-99.99,,2013-06-04 22:42:00,
2013-06-04 16:52:00,62.0,22.0,-100.00,WNW,292,14.0,22.0,21,0.00,,,-99.99,,2013-06-04 22:52:00,
2013-06-04 17:02:00,62.0,22.0,-100.00,WNW,287,14.0,18.0,21,0.00,,,-99.99,,2013-06-04 23:02:00,
2013-06-04 17:12:00,61.0,30.0,-100.00,WNW,296,16.0,21.0,31,0.00,,,-99.99,,2013-06-04 23:12:00,
2013-06-04 17:22:00,52.0,37.0,-100.00,NE,45,29.0,45.0,56,0.00,,,-99.99,,2013-06-04 23:22:00,
2013-06-04 17:32:00,51.0,37.0,-100.00,NE,51,24.0,31.0,58,0.00,,,-99.99,,2013-06-04 23:32:00,
2013-06-04 17:42:00,51.0,37.0,-100.00,ENE,58,23.0,30.0,59,0.00,,,-99.99,,2013-06-04 23:42:00,
2013-06-04 17:52:00,51.0,38.0,-100.00,ENE,61,20.0,29.0,60,0.00,,,-99.99,,2013-06-04 23:52:00,
2013-06-04 18:02:00,51.0,38.0,-100.00,ENE,59,17.0,23.0,60,0.00,,,-99.99,,2013-06-05 00:02:00,
2013-06-04 18:12:00,50.0,38.0,-100.00,NE,55,15.0,23.0,62,0.00,,,-99.99,,2013-06-05 00:12:00,
2013-06-04 18:22:00,51.0,38.0,-100.00,NE,48,16.0,22.0,61,0.00,,,-99.99,,2013-06-05 00:22:00,
2013-06-04 18:32:00,50.0,37.0,-100.00,ENE,58,16.0,21.0,62,0.00,,,-99.99,,2013-06-05 00:32:00,
2013-06-04 18:42:00,50.0,37.0,-100.00,ENE,64,14.0,21.0,61,0.00,,,-99.99,,2013-06-05 00:42:00,
2013-06-04 18:52:00,50.0,36.0,-100.00,ENE,65,16.0,21.0,60,0.00,,,-99.99,,2013-06-05 00:52:00,
2013-06-04 19:02:00,49.0,36.0,-100.00,ENE,61,17.0,21.0,61,0.00,,,-99.99,,2013-06-05 01:02:00,
2013-06-04 19:12:00,49.0,37.0,-100.00,ENE,65,16.0,21.0,62,0.00,,,-99.99,,2013-06-05 01:12:00,
2013-06-04 19:22:00,49.0,36.0,-100.00,ENE,61,14.0,18.0,61,0.00,,,-99.99,,2013-06-05 01:22:00,
2013-06-04 19:32:00,49.0,36.0,-100.00,ENE,61,14.0,19.0,61,0.00,,,-99.99,,2013-06-05 01:32:00,
2013-06-04 19:42:00,49.0,36.0,-100.00,ENE,65,14.0,19.0,62,0.00,,,-99.99,,2013-06-05 01:42:00,
2013-06-04 19:52:00,48.0,36.0,-100.00,NE,55,12.0,17.0,64,0.00,,,-99.99,,2013-06-05 01:52:00,
2013-06-04 20:02:00,48.0,36.0,-100.00,ENE,65,13.0,17.0,63,0.00,,,-99.99,,2013-06-05 02:02:00,
2013-06-04 20:12:00,47.0,36.0,-100.00,ENE,68,14.0,18.0,64,0.00,,,-99.99,,2013-06-05 02:12:00,
2013-06-04 20:22:00,47.0,36.0,-100.00,ENE,61,12.0,19.0,65,0.00,,,-99.99,,2013-06-05 02:22:00,
2013-06-04 20:32:00,47.0,36.0,-100.00,ENE,68,14.0,19.0,66,0.00,,,-99.99,,2013-06-05 02:32:00,
2013-06-04 20:42:00,46.0,36.0,-100.00,ENE,73,14.0,20.0,66,0.00,,,-99.99,,2013-06-05 02:42:00,
2013-06-04 20:52:00,46.0,35.0,-100.00,ENE,72,16.0,22.0,67,0.00,,,-99.99,,2013-06-05 02:52:00,
2013-06-04 21:02:00,45.0,35.0,-100.00,ENE,75,17.0,23.0,67,0.00,,,-99.99,,2013-06-05 03:02:00,
2013-06-04 21:12:00,45.0,35.0,-100.00,ENE,73,15.0,21.0,68,0.00,,,-99.99,,2013-06-05 03:12:00,
2013-06-04 21:22:00,45.0,35.0,-100.00,ENE,65,16.0,21.0,69,0.00,,,-99.99,,2013-06-05 03:22:00,
2013-06-04 21:33:00,45.0,35.0,-100.00,ENE,72,14.0,21.0,69,0.00,,,-99.99,,2013-06-05 03:33:00,
2013-06-04 21:43:00,44.0,35.0,-100.00,ENE,71,16.0,21.0,69,0.00,,,-99.99,,2013-06-05 03:43:00,
2013-06-04 21:53:00,44.0,35.0,-100.00,ENE,71,15.0,21.0,70,0.00,,,-99.99,,2013-06-05 03:53:00,
2013-06-04 22:02:00,44.0,35.0,-100.00,ENE,71,15.0,19.0,70,0.00,,,-99.99,,2013-06-05 04:02:00,
2013-06-04 22:13:00,43.0,34.0,-100.00,ENE,78,16.0,21.0,70,0.00,,,-99.99,,2013-06-05 04:13:00,
2013-06-04 22:22:00,43.0,35.0,-100.00,East,80,16.0,22.0,72,0.00,,,-99.99,,2013-06-05 04:22:00,
2013-06-04 22:33:00,43.0,35.0,-100.00,ENE,73,15.0,23.0,73,0.00,,,-99.99,,2013-06-05 04:33:00,
2013-06-04 22:42:00,43.0,35.0,-100.00,East,83,15.0,22.0,73,0.00,,,-99.99,,2013-06-05 04:42:00,
2013-06-04 22:53:00,42.0,35.0,-100.00,ENE,78,16.0,22.0,75,0.00,,,-99.99,,2013-06-05 04:53:00,
2013-06-04 23:02:00,42.0,35.0,-100.00,ENE,76,14.0,21.0,75,0.00,,,-99.99,,2013-06-05 05:02:00,
2013-06-04 23:12:00,42.0,35.0,-100.00,ENE,76,15.0,21.0,76,0.00,,,-99.99,,2013-06-05 05:12:00,
2013-06-04 23:22:00,42.0,34.0,-100.00,East,95,12.0,18.0,75,0.00,,,-99.99,,2013-06-05 05:22:00,
2013-06-04 23:32:00,42.0,35.0,-100.00,East,99,11.0,19.0,76,0.00,,,-99.99,,2013-06-05 05:32:00,
2013-06-04 23:42:00,41.0,35.0,-100.00,East,96,12.0,21.0,77,0.00,,,-99.99,,2013-06-05 05:42:00,
2013-06-04 23:52:00,41.0,34.0,-100.00,East,93,14.0,24.0,77,0.00,,,-99.99,,2013-06-05 05:52:00,